Location: Équennes
(49.7375°N, 1.9622°E)
Time: 00:45:58
(UTC+00:00)

Meteor 2-17 Rocket - Pass Details

Date: 28 January 2023
Orbit: 934 x 957 km, 82.5° (Epoch: 30 March)

Event Time Altitude Azimuth Distance (km) Brightness Sun altitude
Rises 17:44:50 0° 350° (N) 3,644 7.4 -10.6°
Reaches altitude 10° 17:47:21 10° 352° (N) 2,696 6.8 -10.9°
Maximum altitude 17:53:33 80° 79° (E) 978 4.4 -11.9°
Drops below altitude 10° 17:59:42 10° 167° (SSE) 2,681 6.8 -12.9°
Sets 18:02:11 0° 169° (SSE) 3,622 7.5 -13.3°
